User: anonymous   Login
Location: Azul
(36.7830°S, 59.8500°W)
Time: 01:29:43
(UTC-03:00)
Language:

First-Move - Orbit

View from above orbital plane
View from above orbital plane
View from above satellite
View from above satellite

Ground track
Ground track

The orbit data is extracted from the following two-line orbital elements,

1 39439U 13066Z   21295.49146139  .00000948  00000-0  11903-3 0  9998
2 39439  97.6116 275.0818 0065926 101.4444 259.4184 14.82827283426771
Epoch (UTC): 22 October 2021 11:47:42
Eccentricity: 0.0065926
inclination: 97.6116°
perigee height: 574 km
apogee height: 666 km
right ascension of ascending node: 275.0818°
argument of perigee: 101.4444°
revolutions per day: 14.82827283
mean anomaly at epoch: 259.4184°
orbit number at epoch: 42677

The dashed part of the orbit path shows where the satellite is in the earth's shadow,  

DLR